TimeCST,TemperatureF,Dew PointF,Humidity,Sea Level PressureIn,VisibilityMPH,Wind Direction,Wind SpeedMPH,Gust SpeedMPH,PrecipitationIn,Events,Conditions,WindDirDegrees,DateUTC
12:53 AM,53.1,52.0,96,30.14,4.0,NE,3.5,-,0.04,Rain,Light Rain,50,2013-01-09 06:53:00
1:33 AM,53.6,51.8,94,30.13,4.0,NE,5.8,-,0.00,,Overcast,50,2013-01-09 07:33:00
1:53 AM,53.1,52.0,96,30.13,4.0,NE,4.6,-,0.00,,Overcast,40,2013-01-09 07:53:00
2:12 AM,53.6,53.6,100,30.14,2.5,NNE,3.5,-,0.00,Rain,Light Rain,20,2013-01-09 08:12:00
2:53 AM,54.0,53.1,97,30.13,2.0,NE,6.9,-,0.02,Rain,Light Rain,40,2013-01-09 08:53:00
3:11 AM,53.6,53.6,100,30.13,3.0,NE,6.9,-,0.00,Rain,Light Rain,40,2013-01-09 09:11:00
3:53 AM,54.0,53.1,97,30.14,4.0,NNE,6.9,-,0.01,Rain,Light Rain,30,2013-01-09 09:53:00
4:28 AM,53.6,53.6,100,30.14,2.0,NNE,8.1,-,0.00,,Overcast,30,2013-01-09 10:28:00
4:42 AM,53.6,53.6,100,30.15,1.5,NNE,8.1,-,0.00,,Overcast,30,2013-01-09 10:42:00
4:53 AM,54.0,53.1,97,30.14,1.0,NNE,6.9,-,0.00,,Overcast,30,2013-01-09 10:53:00
5:15 AM,53.6,53.6,100,30.14,1.0,NNE,8.1,-,N/A,,Overcast,30,2013-01-09 11:15:00
5:44 AM,53.6,53.6,100,30.16,0.8,NE,6.9,-,N/A,,Overcast,40,2013-01-09 11:44:00
5:53 AM,53.1,52.0,96,30.16,0.8,NNE,9.2,-,N/A,,Overcast,30,2013-01-09 11:53:00
6:39 AM,51.8,51.8,100,30.18,0.8,NNE,8.1,-,0.00,Rain,Light Rain,30,2013-01-09 12:39:00
6:53 AM,52.0,52.0,100,30.18,0.8,NNE,9.2,-,0.00,,Mist,30,2013-01-09 12:53:00
7:12 AM,51.8,51.8,100,30.18,1.2,NE,9.2,-,0.02,Rain,Light Rain,40,2013-01-09 13:12:00
7:24 AM,51.8,51.8,100,30.18,2.0,NE,8.1,-,0.02,,Overcast,40,2013-01-09 13:24:00
7:37 AM,51.8,51.8,100,30.19,3.0,NNE,8.1,-,0.02,,Overcast,30,2013-01-09 13:37:00
7:53 AM,52.0,52.0,100,30.19,4.0,NE,8.1,-,0.02,,Overcast,40,2013-01-09 13:53:00
8:08 AM,51.8,51.8,100,30.20,1.8,NNE,8.1,-,N/A,,Overcast,30,2013-01-09 14:08:00
8:33 AM,53.6,51.8,94,30.21,2.5,NE,9.2,-,0.01,Rain,Light Rain,40,2013-01-09 14:33:00
8:40 AM,53.6,51.8,94,30.22,3.0,NNE,8.1,-,0.01,,Overcast,30,2013-01-09 14:40:00
8:53 AM,53.1,52.0,96,30.22,5.0,NE,6.9,-,0.01,,Overcast,40,2013-01-09 14:53:00
9:53 AM,53.1,53.1,100,30.23,6.0,NE,8.1,-,0.00,,Overcast,40,2013-01-09 15:53:00
10:53 AM,54.0,53.1,97,30.23,7.0,NE,5.8,-,N/A,,Overcast,40,2013-01-09 16:53:00
11:13 AM,55.4,53.6,94,30.22,2.0,NE,8.1,-,N/A,,Overcast,40,2013-01-09 17:13:00
11:36 AM,55.4,53.6,94,30.21,3.0,NE,9.2,-,N/A,,Overcast,40,2013-01-09 17:36:00
11:46 AM,55.4,53.6,94,30.21,2.5,NE,10.4,-,N/A,,Overcast,40,2013-01-09 17:46:00
11:53 AM,55.4,53.6,94,30.20,2.5,NE,9.2,-,N/A,,Overcast,50,2013-01-09 17:53:00
12:46 PM,55.4,53.6,94,30.17,3.0,NE,11.5,-,N/A,,Overcast,40,2013-01-09 18:46:00
12:53 PM,55.0,54.0,96,30.17,3.0,NE,9.2,-,N/A,,Overcast,40,2013-01-09 18:53:00
1:03 PM,55.4,53.6,94,30.17,2.0,NE,15.0,-,N/A,,Overcast,40,2013-01-09 19:03:00
1:10 PM,55.4,53.6,94,30.17,1.5,NE,12.7,-,N/A,,Overcast,40,2013-01-09 19:10:00
1:53 PM,55.0,54.0,96,30.16,1.5,NE,9.2,-,0.01,Rain,Light Rain,40,2013-01-09 19:53:00
2:07 PM,55.4,53.6,94,30.17,2.0,NE,9.2,-,0.00,Rain,Light Rain,40,2013-01-09 20:07:00
2:40 PM,55.4,53.6,94,30.17,3.0,NE,10.4,-,0.02,Rain,Light Rain,40,2013-01-09 20:40:00
2:53 PM,55.0,54.0,96,30.17,3.0,NNE,8.1,-,0.03,Rain,Light Rain,30,2013-01-09 20:53:00
3:53 PM,54.0,53.1,97,30.17,4.0,NE,12.7,-,0.07,Rain,Rain,40,2013-01-09 21:53:00
4:53 PM,54.0,53.1,97,30.16,7.0,NE,13.8,-,0.06,Rain,Light Rain,40,2013-01-09 22:53:00
5:53 PM,54.0,53.1,97,30.18,10.0,ENE,8.1,-,0.03,Rain,Light Rain,60,2013-01-09 23:53:00
6:53 PM,54.0,53.1,97,30.21,4.0,NE,6.9,-,0.08,Rain,Rain,40,2013-01-10 00:53:00
7:53 PM,54.0,53.1,97,30.20,8.0,NE,9.2,-,0.14,Rain,Light Rain,40,2013-01-10 01:53:00
8:53 PM,54.0,53.1,97,30.18,7.0,NE,13.8,-,0.08,Rain,Light Rain,40,2013-01-10 02:53:00
9:53 PM,55.0,54.0,96,30.15,7.0,ENE,12.7,-,0.05,Rain,Light Rain,60,2013-01-10 03:53:00
10:53 PM,55.9,55.0,97,30.12,10.0,ENE,12.7,-,0.01,Rain,Light Rain,70,2013-01-10 04:53:00
11:53 PM,57.0,55.9,96,30.12,10.0,ENE,11.5,-,0.01,Rain,Light Rain,70,2013-01-10 05:53:00